Simultaneous Nadir Overpasses (SNOs) Predictions

Prediction of SNOs between GOES-15 and METOP-B Satellite Orbit:

Table of predicted SNOs for the next 14.0 days since TLE Epoch: 5/7/2018
Index Date Time (GOES-15) GOES-15 Lat,Lon METOP-B Lat,Lon Distance(km) Time Diff (sec)
1 05/10/2018 06:30:23 0.14,-135.45 0.09,-135.61 19.44 80
2 05/12/2018 18:28:34 -0.14,-135.44 -0.19,-135.18 29.49 80
3 05/14/2018 06:47:33 0.14,-135.39 -0.86,-139.77 499.49 80
4 05/15/2018 06:29:34 0.14,-135.38 0.28,-134.78 67.86 80
5 05/16/2018 18:48:24 -0.15,-135.37 0.76,-139.34 452.53 80
6 05/17/2018 18:25:05 -0.15,-135.35 -0.38,-134.35 114.03 80
7 05/19/2018 06:44:04 0.15,-135.29 -0.66,-138.95 416.75 80
8 05/20/2018 06:26:03 0.16,-135.26 0.43,-133.95 149.54 80
9 05/21/2018 18:44:55 -0.16,-135.25 0.56,-138.51 372.01 80




NCC Satellite Simultaneous Nadir Overpasses (SNOs) Prediction Service
